Escanaba, MI

3:58 PM EST on January 24, 2017 (GMT -0500)
Delta County

Weather History for KESC - March, 2014

Change the Weather History Date:

Friday, March 14, 2014

  Actual Average Record
Temperature  
Mean Temperature 33 °F -  
Max Temperature 42 °F 36 °F 49 °F (1964)
Min Temperature 24 °F 19 °F -4 °F (1975)
Degree Days  
Heating Degree Days 32    
Moisture  
Dew Point 29 °F    
Average Humidity 84    
Maximum Humidity 93    
Minimum Humidity 61    
Precipitation  
Precipitation 0.08 in - - ()
Sea Level Pressure  
Sea Level Pressure 29.46 in    
Wind  
Wind Speed 10 mph (West)    
Max Wind Speed 16 mph    
Max Gust Speed 26 mph    
Visibility 8 miles    
Events      
Averages and records for this station are not official NWS values.
T = Trace of Precipitation, MM = Missing Value Source: NWS Daily Summary

Daily Weather History Graph

Daily Weather History Graph

Search for Another Location

Airport or City:

Trip Planner

Search our weather history database for the weather conditions in past years. The results will help you decide how hot, cold, wet, or windy it might be!

Date:

Astronomy

Mar. 14, 2014 Rise Set
Actual Time 8:02 AM EDT 7:52 PM EDT
Civil Twilight 7:33 AM EDT 8:22 PM EDT
Nautical Twilight 6:58 AM EDT 8:57 PM EDT
Astronomical Twilight 6:23 AM EDT 9:32 PM EDT
Moon 6:11 PM EDT (3/14) 6:47 AM EDT (3/14)
Length of Visible Light 12h 49m
Length of Day
11h 50m
Waxing Gibbous, 96% of the Moon is Illuminated
Mar 14
Waxing Gibbous
Mar 16
Full
Mar 23
Last Quarter
Mar 30
New
Apr 7
First Quarter

Hourly Weather History & Observations

Time (EDT) Temp. Windchill Dew Point Humidity Pressure Visibility Wind Dir Wind Speed Gust Speed Precip Events Conditions
12:15 AM 24.8 °F 12.9 °F 21.2 °F 86% 29.60 in 10.0 mi SSW 13.8 mph 18.4 mph N/A   Clear
12:35 AM 26.6 °F 16.2 °F 21.2 °F 80% 29.59 in 9.0 mi SSW 11.5 mph - N/A   Clear
12:55 AM 26.6 °F 16.2 °F 21.2 °F 80% 29.58 in 8.0 mi SSW 11.5 mph 16.1 mph N/A   Clear
1:15 AM 26.6 °F 16.2 °F 21.2 °F 80% 29.57 in 8.0 mi SSW 11.5 mph - N/A   Clear
1:35 AM 26.6 °F 16.2 °F 21.2 °F 80% 29.56 in 8.0 mi SSW 11.5 mph - N/A   Clear
1:55 AM 26.6 °F 16.8 °F 23.0 °F 86% 29.55 in 8.0 mi SSW 10.4 mph - N/A   Clear
2:15 AM 26.6 °F 16.8 °F 23.0 °F 86% 29.54 in 7.0 mi SSW 10.4 mph - N/A   Clear
2:35 AM 26.6 °F 17.5 °F 24.8 °F 93% 29.54 in 7.0 mi SSW 9.2 mph - N/A   Clear
2:55 AM 28.4 °F 18.0 °F 24.8 °F 86% 29.53 in 7.0 mi SSW 12.7 mph 19.6 mph N/A   Clear
3:15 AM 28.4 °F 17.5 °F 26.6 °F 93% 29.52 in 7.0 mi SSW 13.8 mph 19.6 mph N/A   Clear
3:35 AM 28.4 °F 18.0 °F 24.8 °F 86% 29.51 in 6.0 mi SSW 12.7 mph 17.3 mph N/A   Clear
3:55 AM 28.4 °F 19.1 °F 24.8 °F 86% 29.49 in 6.0 mi SSW 10.4 mph - N/A   Clear
4:15 AM 28.4 °F 19.1 °F 24.8 °F 86% 29.48 in 5.0 mi South 10.4 mph - N/A   Clear
4:35 AM 28.4 °F 19.7 °F 24.8 °F 86% 29.47 in 5.0 mi South 9.2 mph - N/A   Clear
4:55 AM 28.4 °F 19.1 °F 24.8 °F 86% 29.45 in 5.0 mi South 10.4 mph - N/A   Clear
5:15 AM 28.4 °F 19.1 °F 26.6 °F 93% 29.44 in 5.0 mi SSW 10.4 mph - N/A   Clear
5:35 AM 28.4 °F 19.7 °F 26.6 °F 93% 29.44 in 5.0 mi SSW 9.2 mph - N/A   Clear
5:55 AM 28.4 °F 18.5 °F 26.6 °F 93% 29.42 in 4.0 mi SSW 11.5 mph - N/A   Clear
6:15 AM 30.2 °F 21.3 °F 28.4 °F 93% 29.41 in 4.0 mi SSW 10.4 mph - N/A   Clear
6:35 AM 30.2 °F 21.3 °F 26.6 °F 86% 29.40 in 4.0 mi SSW 10.4 mph - N/A   Clear
6:55 AM 30.2 °F 20.8 °F 28.4 °F 93% 29.39 in 5.0 mi SSW 11.5 mph - N/A   Clear
7:15 AM 30.2 °F 22.6 °F 28.4 °F 93% 29.39 in 5.0 mi SW 8.1 mph - N/A   Clear
7:35 AM 30.2 °F 26.7 °F 28.4 °F 93% 29.39 in 5.0 mi SW 3.5 mph - N/A   Clear
7:55 AM 30.2 °F - 28.4 °F 93% 29.39 in 4.0 mi Calm Calm - N/A   Clear
8:15 AM 30.2 °F - 28.4 °F 93% 29.39 in 2.5 mi Calm Calm - N/A   Clear
8:35 AM 28.4 °F - 26.6 °F 93% 29.39 in 2.5 mi Calm Calm - N/A   Clear
8:55 AM 26.6 °F - 24.8 °F 93% 29.39 in 3.0 mi Calm Calm - N/A   Partly Cloudy
9:15 AM 28.4 °F - 26.6 °F 93% 29.39 in 2.5 mi Calm Calm - N/A   Clear
9:35 AM 28.4 °F - 24.8 °F 86% 29.39 in 2.5 mi Calm Calm - N/A   Clear
9:55 AM 28.4 °F - 26.6 °F 93% 29.38 in 2.5 mi Calm Calm - N/A   Clear
10:15 AM 30.2 °F - 28.4 °F 93% 29.37 in 3.0 mi Calm Calm - N/A   Clear
10:35 AM 33.8 °F 27.0 °F 28.4 °F 81% 29.37 in 7.0 mi West 8.1 mph - N/A   Clear
10:55 AM 35.6 °F 29.9 °F 30.2 °F 81% 29.36 in 8.0 mi West 6.9 mph - N/A   Clear
11:15 AM 37.4 °F 30.8 °F 30.2 °F 75% 29.35 in 10.0 mi WNW 9.2 mph - N/A   Clear
11:35 AM 39.2 °F 32.0 °F 30.2 °F 70% 29.35 in 10.0 mi WNW 11.5 mph - N/A   Clear
11:55 AM 39.2 °F 32.0 °F 33.8 °F 81% 29.35 in 10.0 mi WNW 11.5 mph - N/A   Partly Cloudy
12:15 PM 41.0 °F 35.8 °F 33.8 °F 76% 29.35 in 10.0 mi NW 8.1 mph - N/A   Scattered Clouds
12:35 PM 42.8 °F 37.5 °F 32.0 °F 66% 29.35 in 10.0 mi NNW 9.2 mph - N/A   Mostly Cloudy
12:55 PM 42.8 °F 38.6 °F 32.0 °F 66% 29.36 in 10.0 mi NNW 6.9 mph - N/A   Mostly Cloudy
1:15 PM 42.8 °F 37.5 °F 32.0 °F 66% 29.37 in 10.0 mi West 9.2 mph - N/A   Overcast
1:35 PM 42.8 °F 36.6 °F 30.2 °F 61% 29.38 in 10.0 mi WNW 11.5 mph - N/A   Overcast
1:55 PM 42.8 °F 36.6 °F 33.8 °F 70% 29.39 in 10.0 mi West 11.5 mph - N/A   Overcast
2:15 PM 42.8 °F 37.5 °F 33.8 °F 70% 29.39 in 10.0 mi West 9.2 mph - N/A   Overcast
2:35 PM 41.0 °F 36.4 °F 33.8 °F 76% 29.39 in 10.0 mi West 6.9 mph - N/A   Overcast
2:55 PM 39.2 °F 35.0 °F 35.6 °F 87% 29.39 in 8.0 mi WNW 5.8 mph - N/A   Overcast
3:15 PM 39.2 °F 35.0 °F 37.4 °F 93% 29.39 in 5.0 mi West 5.8 mph - 0.01 in   Overcast
3:35 PM 39.2 °F 32.0 °F 35.6 °F 87% 29.39 in 7.0 mi West 11.5 mph 18.4 mph 0.02 in   Overcast
3:55 PM 37.4 °F 29.3 °F 33.8 °F 87% 29.40 in 9.0 mi West 12.7 mph - 0.04 in   Overcast
4:15 PM 37.4 °F 29.8 °F 33.8 °F 87% 29.41 in 6.0 mi West 11.5 mph - N/A   Overcast
4:35 PM 37.4 °F 29.3 °F 33.8 °F 87% 29.41 in 9.0 mi West 12.7 mph - 0.02 in   Overcast
4:55 PM 37.4 °F 30.3 °F 33.8 °F 87% 29.42 in 9.0 mi WNW 10.4 mph - 0.03 in   Overcast
5:15 PM 37.4 °F 29.8 °F 33.8 °F 87% 29.43 in 10.0 mi WNW 11.5 mph - 0.01 in   Overcast
5:35 PM 37.4 °F 31.4 °F 35.6 °F 93% 29.44 in 10.0 mi NNW 8.1 mph 16.1 mph 0.01 in   Overcast
5:55 PM 37.4 °F 32.8 °F 33.8 °F 87% 29.46 in 5.0 mi NNW 5.8 mph - 0.01 in   Mostly Cloudy
6:15 PM 37.4 °F 32.8 °F 33.8 °F 87% 29.47 in 5.0 mi NNW 5.8 mph - N/A   Overcast
6:35 PM 37.4 °F 28.5 °F 33.8 °F 87% 29.48 in 6.0 mi NW 15.0 mph 21.9 mph N/A   Overcast
6:55 PM 37.4 °F 30.3 °F 33.8 °F 87% 29.48 in 10.0 mi NW 10.4 mph 17.3 mph N/A   Overcast
7:15 PM 37.4 °F 32.8 °F 33.8 °F 87% 29.50 in 10.0 mi WNW 5.8 mph - N/A   Overcast
7:35 PM 37.4 °F 29.8 °F 32.0 °F 81% 29.51 in 10.0 mi WNW 11.5 mph 17.3 mph N/A   Overcast
7:55 PM 37.4 °F 30.3 °F 32.0 °F 81% 29.52 in 10.0 mi WNW 10.4 mph - N/A   Overcast
8:15 PM 37.4 °F 31.4 °F 32.0 °F 81% 29.53 in 10.0 mi WNW 8.1 mph - N/A   Overcast
8:35 PM 35.6 °F 28.6 °F 33.8 °F 93% 29.54 in 10.0 mi WNW 9.2 mph - N/A   Overcast
8:55 PM 35.6 °F 27.5 °F 32.0 °F 87% 29.55 in 10.0 mi WNW 11.5 mph - N/A   Overcast
9:15 PM 35.6 °F 28.6 °F 32.0 °F 87% 29.56 in 10.0 mi WNW 9.2 mph - N/A   Overcast
9:35 PM 35.6 °F 28.6 °F 32.0 °F 87% 29.57 in 10.0 mi WNW 9.2 mph - N/A   Overcast
9:55 PM 33.8 °F 27.7 °F 28.4 °F 81% 29.59 in 10.0 mi North 6.9 mph - N/A   Overcast
10:15 PM 32.0 °F 24.2 °F 28.4 °F 87% 29.61 in 8.0 mi North 9.2 mph 17.3 mph N/A   Overcast
10:35 PM 30.2 °F 22.6 °F 26.6 °F 86% 29.63 in 10.0 mi North 8.1 mph - N/A   Overcast
10:55 PM 30.2 °F 20.2 °F 24.8 °F 80% 29.64 in 10.0 mi North 12.7 mph 26.5 mph N/A   Overcast
11:15 PM 30.2 °F 20.8 °F 24.8 °F 80% 29.66 in 10.0 mi NNW 11.5 mph 18.4 mph N/A   Mostly Cloudy
11:35 PM 30.2 °F 18.9 °F 23.0 °F 75% 29.67 in 10.0 mi NNW 16.1 mph 21.9 mph N/A   Overcast
11:55 PM 28.4 °F 18.0 °F 21.2 °F 74% 29.68 in 10.0 mi NNW 12.7 mph 20.7 mph N/A   Overcast